map of LCG home
LCG - Airport
Location
City:  A Coruņa, Galicia, Spain
Name:A Coruņa Airport
Old (Alt.):Alvedro Airport
ICAO:LECO
IATA:LCG

Details
Type:Airport (Aerodrome, Airfield)
Use:Public/Civil
Latitude:43°18'07"N (43.302061)
Longitude:8°22'38"W (-8.377255)
Datum:WGS 1984
Elevation:326 ft (99 m)
Variation:2.10°W (WMM2015v2 magnetic declination)
0.17° annual change
Runways:1
Longest:6365 × 148 ft (1940 × 45 m), paved

Time
Time Zone:UTC+1 (DST+2)
Local Time:

Weather
METAR:LECO 041400Z 22008KT 170V250 9999 FEW027 SCT037 BKN048 12/09 Q1028 NOSIG
TAF:LECO 040800Z 0409/0509 22008KT 9999 SCT040 TX15/0414Z TN07/0409Z

Related Locations
Nearby:
Farthest:NZPH: 12436 mi / 20014 km
Pudding Hill, CAN, NZ

Find:

   beyond  
but within

Other Information
Maps:
NOTAMs:
Links:
Sources:

  
  • flag of Spain
  • flag of Galicia
  

Sectional Chart

Flight Planning
at skyvector.com

Satellite Image

Google Maps Satellite view

 

Copyright © 2004-2019 Karl L. Swartz. All rights reserved.
The Great Circle Mapper name and logo are trademarks of the Great Circle Mapper.
All other trademarks mentioned herein belong to their respective owners.
Please see credits for attibutions and further copyright information.

  Follow gcmap on Facebook Follow gcmap on Twitter GCmap on LinkedIn

hCard Microformat

Geo Microformat